STARLINK-1152, 45096

Orbit data source: Space-Track

STARLINK-1152, 45096 is a payload satellite owned by SpaceX/Seattle (US) in LEO that was launched on Wed, 29 Jan 2020 UTC via an FALCON 9 launch vehicle from the Air Force Eastern Test Range (AFETR). Payload-class satellites include a variety of spacecraft equipped with specific instruments for various scientific and technological missions. These include communications satellites like Starlink; space stations such as the ISS; scientific satellites like the Hubble; Earth observation satellites from companies like Planet Labs, Umbra, and HawkEye 360; GPS; miniature CubeSats for education and research; and military/defense satellites.

Loading next visibility...
Identifier
45096, 2020-006BE
Orbit
LEO
Country
Flag of USUS
Related business
Manufacturer
SpaceX/Seattle
Mission
Partially operational Commercial Communications
Bus & Motor
STARLINK, Unknown motor
Mass
260 kg wet, ~248 kg dry
Launch date (UTC)
2020-01-29 (6 years ago)
Launch vehicle
FALCON 9
Launch site
Air Force Eastern Test Range (AFETR)
Object type
Payload
Rocket body
Debris
Shape & HBR
Box + 1 Pan, 10.1 m
Radar Cross Section
13.562 m², Large (>1 m²)

Expand to show TLE details & history
Last TLE update: 13 hours ago

TLE from 13 hours ago
0 STARLINK-1152
1 45096U 20006BE  26125.76565450  .00064697  00000-0  13376-2 0  9990
2 45096  53.0360 295.8324 0001183  25.0869 335.0194 15.45228761346390
Epoch: 2026-05-05T18:22Z
TLE epoch observation values (Epoch: 2026-05-05T18:22:32.548Z)
Latitude
-0.00003°
Longitude
156.56096°
Altitude
430.868 km
Speed
7.655 km/s
True Right ascension
19h 43m 19s
True Declination
0° 00' 00"
Sunlit
Object was in daylight at epoch
Visualization orbit readout
Latitude
Unknown
Longitude
Unknown
Altitude
Unknown
Speed
Unknown
Apparent Right ascension
Unknown
Apparent Declination
Unknown
Sunlit
N/A
Visualization observer readout
Local Sidereal Time
15:14:56
Azimuth
Unknown
Elevation
Unknown
Doppler factor
Unknown
Orbital elements
Apogee altitude
431.79 km
Perigee altitude
430.179 km
Semi-major axis
6,809.121 km
Eccentricity
0.00012
Inclination
53.036°
RAAN
295.8324°
Arg. of periapsis
25.0869°
True anomaly
335.01367°
Mean anomaly
335.0194°
Eccentric anomaly
335.01654°
Mean motion
3.86284 °/min
Orbital period
93.2 mins
BSTAR
0.0013376
Loading maneuver chart data...
Computing Atmospheric mass density...

Documentation

Showing up to 5 results
|